TimePST,TemperatureF,Dew PointF,Humidity,Sea Level PressureIn,VisibilityMPH,Wind Direction,Wind SpeedMPH,Gust SpeedMPH,PrecipitationIn,Events,Conditions,WindDirDegrees,DateUTC
12:53 AM,50.0,19.9,31,30.02,10.0,Variable,5.8,-,N/A,,Clear,0,2012-12-19 08:53:00
1:53 AM,48.9,21.0,33,30.04,10.0,WNW,8.1,-,N/A,,Clear,290,2012-12-19 09:53:00
2:53 AM,48.9,21.0,33,30.04,10.0,WNW,9.2,-,N/A,,Clear,300,2012-12-19 10:53:00
3:53 AM,48.0,21.0,34,30.08,10.0,Calm,Calm,-,N/A,,Clear,0,2012-12-19 11:53:00
4:53 AM,45.0,24.1,44,30.10,10.0,Calm,Calm,-,N/A,,Clear,0,2012-12-19 12:53:00
5:53 AM,41.0,26.1,55,30.12,10.0,East,4.6,-,N/A,,Clear,90,2012-12-19 13:53:00
6:53 AM,39.9,26.1,58,30.14,10.0,East,3.5,-,N/A,,Clear,90,2012-12-19 14:53:00
7:53 AM,43.0,26.1,51,30.17,10.0,East,4.6,-,N/A,,Clear,100,2012-12-19 15:53:00
8:53 AM,50.0,25.0,38,30.19,10.0,Calm,Calm,-,N/A,,Clear,0,2012-12-19 16:53:00
9:53 AM,54.0,24.1,31,30.22,10.0,WNW,4.6,-,N/A,,Clear,300,2012-12-19 17:53:00
10:53 AM,57.0,23.0,27,30.20,10.0,Variable,3.5,-,N/A,,Clear,0,2012-12-19 18:53:00
11:53 AM,60.1,24.1,25,30.19,10.0,Calm,Calm,-,N/A,,Clear,0,2012-12-19 19:53:00
12:53 PM,61.0,19.0,20,30.18,10.0,Variable,6.9,-,N/A,,Clear,0,2012-12-19 20:53:00
1:53 PM,63.0,18.0,18,30.17,10.0,Variable,5.8,-,N/A,,Clear,0,2012-12-19 21:53:00
2:53 PM,64.0,9.0,12,30.18,10.0,ESE,11.5,18.4,N/A,,Clear,110,2012-12-19 22:53:00
3:53 PM,63.0,15.1,16,30.18,10.0,East,6.9,-,N/A,,Clear,90,2012-12-19 23:53:00
4:53 PM,60.1,12.9,16,30.19,10.0,East,4.6,-,N/A,,Clear,80,2012-12-20 00:53:00
5:53 PM,55.0,19.9,25,30.21,10.0,Calm,Calm,-,N/A,,Clear,0,2012-12-20 01:53:00
6:53 PM,53.1,26.1,35,30.22,10.0,Calm,Calm,-,N/A,,Clear,0,2012-12-20 02:53:00
7:53 PM,51.1,23.0,33,30.23,10.0,East,4.6,-,N/A,,Clear,90,2012-12-20 03:53:00
8:53 PM,53.1,14.0,21,30.25,10.0,NE,4.6,-,N/A,,Clear,40,2012-12-20 04:53:00
9:53 PM,54.0,10.9,18,30.26,10.0,NNE,3.5,-,N/A,,Clear,20,2012-12-20 05:53:00
10:53 PM,51.1,15.1,24,30.26,10.0,ENE,3.5,-,N/A,,Clear,70,2012-12-20 06:53:00
11:53 PM,54.0,10.0,17,30.25,10.0,ENE,6.9,-,N/A,,Clear,60,2012-12-20 07:53:00